Regional Weather Roundup
Issued by NWS Northern Indiana

Home | Current Version | Previous Version | Graphics & Text | Print | Product List | Glossary On
Versions: 1 2 3 4 5 6 7 8 9 10 11 12 13 14 15 16 17 18 19 20 21 22 23 24 25 26 27 28 29 30 31 32 33 34 35 36 37 38 39 40 41 42 43 44 45 46 47 48 49 50
000
ASUS43 KIWX 252010
RWRIWX

KIWX WEATHER ROUNDUP
NATIONAL WEATHER SERVICE NORTHERN INDIANA
400 PM EDT MON JUL 25 2016

NOTE: "FAIR" INDICATES FEW OR NO CLOUDS BELOW 12,000 FEET WITH NO
SIGNIFICANT WEATHER AND/OR OBSTRUCTIONS TO VISIBILITY.

* THESE STATIONS ARE NOT UNDER NWS QUALITY CONTROL. THEY ALSO MAY NOT
  REPORT WEATHER SUCH AS PRECIPITATION OR FOG.

INZ001>027-252100-
NORTHERN INDIANA

CITY           SKY/WX    TMP DP  RH WIND       PRES   REMARKS
VALPARAISO     SUNNY     86  62  44 N8        30.01F
MICHIGAN CITY* SUNNY     81  64  57 N5        30.01F
LAPORTE*       SUNNY     84  64  50 NW6       30.01F
KNOX*          MOSUNNY   82  55  39 NW7       30.00F
SOUTH BEND     SUNNY     83  65  54 NW10G16   30.00F
ELKHART*       SUNNY     84  70  61 NW9       30.00F
GOSHEN         SUNNY     87  58  37 NW13      29.98F
MONTICELLO*    CLOUDY    84  68  59 NW5       29.99F
LOGANSPORT*    CLOUDY    82  70  65 W3        30.01S
ROCHESTER*     CLOUDY    86  70  58 W8        30.00F
WARSAW*        MOSUNNY   84  66  54 NW7       29.99F
ANGOLA*          N/A     86  82  89 W10       29.98F HX 105
FORT WAYNE     PTSUNNY   87  69  54 NW8       29.98F
HUNTINGTON*    PTSUNNY  N/A N/A N/A NW6       29.98F
PERU/GRISSOM   CLOUDY    84  71  65 NW6       29.99F
MARION*        MOSUNNY   83  72  69 N7        30.00S HAZE

$$
INZ028>050-252100-
CENTRAL INDIANA

CITY           SKY/WX    TMP DP  RH WIND       PRES   REMARKS
LAFAYETTE      PTSUNNY   84  73  69 VRB5      29.99F
KOKOMO*        MOSUNNY   84  70  61 NW12      29.99F
MUNCIE*        MOSUNNY   88  73  61 W9        29.99F HX  95
INDIANAPOLIS   PTSUNNY   88  72  58 W8G17     30.00F

$$
MIZ043>046-050>051-056>058-064>065-071>073-077>080-252100-
SOUTHWEST LOWER MICHIGAN

CITY           SKY/WX    TMP DP  RH WIND       PRES   REMARKS
BATTLE CREEK   MOSUNNY   83  66  56 NW13G18   29.98F
BENTON HARBOR  SUNNY     79  65  62 VRB6      30.01S
COLDWATER*     CLOUDY    85  64  47 W9        29.98F
HILLSDALE*       N/A    N/A N/A N/A MISG        N/A
HOLLAND        SUNNY     81  65  58 W10       30.00S
GRAND RAPIDS   MOSUNNY   86  61  42 NW9       29.96F
KALAMAZOO      MOSUNNY   85  64  49 W13G18    29.97F
STURGIS*       SUNNY     84  65  51 NW6       29.98F
THREE RIVERS*  FAIR      85  63  46 NW10      29.98F

$$
OHZ001>008-015>018-024>025-252100-
NORTHWEST OHIO

CITY           SKY/WX    TMP DP  RH WIND       PRES   REMARKS
DEFIANCE       MOSUNNY   89  69  51 W9        29.96F
FINDLAY        SUNNY     90  66  45 W13G18    29.95F
TOLEDO EXPRESS CLOUDY    87  72  60 W12       29.94F
TOLEDO METCALF CLOUDY    88  71  57 W16       29.94F
LIMA           SUNNY     87  69  54 SW9       29.97F

$$
AND FOR LAKE MICHIGAN COASTAL AND OPEN LAKE BUOY OBSERVATIONS

STATION/POSITION TEMP    WIND        PRES    VSBY  WAVE
                 AIR SEA DIR/SP/G                  HT/PER
                 (F)     (DEG/KT/KT) (MB)    (MI)  (FT/S)
CALUMET HARBOR    78      70/  6/  9 1015.9F
MICHIGAN CITY     77     270/  4/  5   N/A
BURNS HARBOR      78      40/  4/  4 1016.9F
SAINT JOSEPH      75     300/  4/  6 1016.6
SOUTH LAKE BUOY   75 75  140/  4/  6 1015.2          1/ 3
4 MI NW BRIDGMAN  74 79  310/  4/  6 1015.8F         1/ 4
MICHIGAN CITY     75 76   40/  4/  4   N/A           1/ 3

$$
&&




USA.gov is the U.S. government's official web portal to all federal, state and local government web resources and services.